Orbital Elements at Epoch 2459200.5 (2020-Dec-17.0) TDB
Reference: JPL 16 (heliocentric ecliptic J2000)
Element | Value | Uncertainty (1-sigma) | Units |
e | .1727274641296572 | 5.2317e-08 | |
a | 2.35865186978069 | 1.03e-08 | au |
q | 1.951247913548797 | 1.1924e-07 | au |
i | 7.634284775594849 | 5.2032e-06 | deg |
node | 45.24036822479349 | 2.8278e-05 | deg |
peri | 313.9563062441431 | 3.2376e-05 | deg |
M | 81.27803909860141 | 1.9354e-05 | deg |
tp | 2458901.779580187367 (2020-Feb-22.27958019) | 6.9564e-05 | TDB |
period | 1323.104645795994 3.62 | 8.6665e-06 2.373e-08 | d yr |
n | .2720873221508645 | 1.7822e-09 | deg/d |
Q | 2.766055826012583 | 1.2079e-08 | au |
|
| | Orbit Determination Parameters
Additional Information
|